^^
Saratoga-Weather Station Historical Data
 
Daily Summary for October 19, 2019 Units:  English    Metric   Both
Daily Weekly Monthly Yearly Custom
  Current: High: Low: Average:
Temperature: 62.2 °F 64.6 °F 62.2 °F 63.2 °F
Dew Point: 60.4 °F 61 °F 60.1 °F 60.5 °F
Humidity: 94% 94% 88% 91%
Wind Speed: 0mph 2mph 0mph 0.1mph
Wind Gust: 0mph 2mph - -
WindCalm - - East
Pressure: 29.78 in 29.80 in 29.78 in -
Precipitation: 0 in      
Historical Graphs
 
 
Tabular Data for October 19, 2019
Time Temperature Dew Point Pressure Wind Wind Speed Wind Gust Humidity Rainfall Rate (Hourly) solar
00:00 64.6 °F 61 °F 29.80 in East 0.9 mph 1 mph 88% 0 in 0.00 W/m2
00:05 64.4 °F 60.8 °F 29.80 in Calm   1 mph 88% 0 in 0.00 W/m2
00:10 64.2 °F 60.6 °F 29.80 in Calm     88% 0 in 0.00 W/m2
00:15 64 °F 60.8 °F 29.80 in Calm     89% 0 in 0.00 W/m2
00:20 64 °F 60.8 °F 29.80 in Calm   1 mph 89% 0 in 0.00 W/m2
00:25 64 °F 60.8 °F 29.80 in Calm     89% 0 in 0.00 W/m2
00:30 63.9 °F 60.8 °F 29.80 in Calm     90% 0 in 0.00 W/m2
00:35 63.7 °F 60.6 °F 29.80 in Calm     90% 0 in 0.00 W/m2
00:40 63.3 °F 60.3 °F 29.80 in Calm   1 mph 90% 0 in 0.00 W/m2
00:45 63.3 °F 60.6 °F 29.79 in Calm     91% 0 in 0.00 W/m2
00:50 63.1 °F 60.4 °F 29.79 in Calm     91% 0 in 0.00 W/m2
00:55 63.1 °F 60.4 °F 29.78 in Calm   1 mph 91% 0 in 0.00 W/m2
01:00 63.1 °F 60.4 °F 29.78 in East 0.9 mph 2 mph 91% 0 in 0.00 W/m2
01:05 63.3 °F 61 °F 29.78 in East 0.9 mph 2 mph 92% 0 in 0.00 W/m2
01:10 63.5 °F 60.8 °F 29.78 in Calm   1 mph 91% 0 in 0.00 W/m2
01:15 63.5 °F 60.8 °F 29.79 in Calm     91% 0 in 0.00 W/m2
01:20 63.7 °F 60.6 °F 29.79 in Calm   1 mph 90% 0 in 0.00 W/m2
01:25 64 °F 61 °F 29.79 in Calm   1 mph 90% 0 in 0.00 W/m2
01:30 63.9 °F 60.8 °F 29.78 in East 2 mph 2 mph 90% 0 in 0.00 W/m2
01:35 63.7 °F 60.6 °F 29.79 in Calm   1 mph 90% 0 in 0.00 W/m2
01:40 63.7 °F 60.6 °F 29.79 in Calm     90% 0 in 0.00 W/m2
01:45 63.3 °F 60.3 °F 29.78 in Calm     90% 0 in 0.00 W/m2
01:50 63.1 °F 60.4 °F 29.78 in Calm     91% 0 in 0.00 W/m2
01:55 63 °F 60.6 °F 29.79 in Calm     92% 0 in 0.00 W/m2
02:00 62.8 °F 60.4 °F 29.78 in Calm     92% 0 in 0.00 W/m2
02:05 62.8 °F 60.4 °F 29.78 in Calm   1 mph 92% 0 in 0.00 W/m2
02:10 62.6 °F 60.3 °F 29.78 in Calm   1 mph 92% 0 in 0.00 W/m2
02:15 62.4 °F 60.1 °F 29.78 in Calm   1 mph 92% 0 in 0.00 W/m2
02:20 62.4 °F 60.4 °F 29.78 in Calm     93% 0 in 0.00 W/m2
02:25 62.2 °F 60.3 °F 29.79 in Calm   1 mph 93% 0 in 0.00 W/m2
02:30 62.4 °F 60.4 °F 29.78 in Calm     93% 0 in 0.00 W/m2
02:35 62.4 °F 60.4 °F 29.78 in Calm     93% 0 in 0.00 W/m2
02:40 62.2 °F 60.3 °F 29.79 in Calm     93% 0 in 0.00 W/m2
02:45 62.2 °F 60.3 °F 29.78 in Calm     93% 0 in 0.00 W/m2
02:50 62.2 °F 60.3 °F 29.78 in Calm     93% 0 in 0.00 W/m2
02:55 62.2 °F 60.3 °F 29.78 in Calm     93% 0 in 0.00 W/m2
03:00 62.2 °F 60.4 °F 29.78 in Calm     94% 0 in 0.00 W/m2
Villages of Bridgestone, Spring, TX USA
Compliments of Weather Underground - 1.75 mb